Location: Angwan Shehu
(11.2514°N, 7.4613°E)
Time: 23:52:17
(UTC+00:00)

Vanguard 3 - Pass Details

Date: 04 August 2021
Orbit: 510 x 3260 km, 33.3° (Epoch: 18 September)

Event Time Altitude Azimuth Distance (km) Brightness Sun altitude
Rises 18:42:40 0° 298° (WNW) 5,852 13.5 -12.2°
Reaches altitude 10° 18:46:47 10° 307° (NW) 5,199 12.5 -13.1°
Maximum altitude 19:01:24 35° 8° (N) 4,314 10.9 -16.5°
Drops below altitude 10° 19:18:38 10° 68° (ENE) 6,103 11.2 -20.4°
Enters shadow 19:21:15 - 72° (ENE) 6,505 11.3 -21.0°
